TimeCST,TemperatureF,Dew PointF,Humidity,Sea Level PressureIn,VisibilityMPH,Wind Direction,Wind SpeedMPH,Gust SpeedMPH,PrecipitationIn,Events,Conditions,WindDirDegrees,DateUTC
12:15 AM,43.9,38.1,80,29.45,10.0,East,11.5,19.6,0.01,Rain,Light Rain,80,2013-02-26 06:15:00
12:35 AM,43.7,38.5,82,29.44,10.0,ENE,12.7,19.6,0.04,Rain,Light Rain,70,2013-02-26 06:35:00
12:55 AM,43.0,39.2,86,29.42,7.0,ENE,11.5,24.2,0.10,Rain,Rain,70,2013-02-26 06:55:00
1:15 AM,42.8,39.4,88,29.42,7.0,East,10.4,18.4,0.07,Rain,Rain,80,2013-02-26 07:15:00
1:35 AM,43.0,40.3,90,29.42,7.0,East,12.7,18.4,0.12,Rain,Light Rain,80,2013-02-26 07:35:00
1:55 AM,42.8,41.4,95,29.42,7.0,East,10.4,16.1,0.16,Rain,Rain,80,2013-02-26 07:55:00
2:15 AM,42.4,41.9,98,29.40,7.0,East,10.4,17.3,0.03,Rain,Light Rain,80,2013-02-26 08:15:00
2:35 AM,42.8,41.9,97,29.39,10.0,East,9.2,17.3,0.03,,Overcast,90,2013-02-26 08:35:00
2:55 AM,43.0,42.8,99,29.38,5.0,East,9.2,16.1,0.03,,Heavy Drizzle,90,2013-02-26 08:55:00
3:15 AM,43.2,43.2,100,29.37,7.0,East,8.1,16.1,0.01,Rain,Light Rain,90,2013-02-26 09:15:00
3:35 AM,43.5,43.5,100,29.37,5.0,East,11.5,-,0.03,Rain,Rain,80,2013-02-26 09:35:00
3:55 AM,43.7,43.7,100,29.36,10.0,East,8.1,-,0.06,Rain,Rain,100,2013-02-26 09:55:00
4:15 AM,44.2,44.2,100,29.35,10.0,East,6.9,-,N/A,,Light Drizzle,100,2013-02-26 10:15:00
4:35 AM,44.8,44.8,100,29.35,10.0,East,6.9,-,N/A,,Overcast,100,2013-02-26 10:35:00
4:55 AM,45.5,45.5,100,29.34,7.0,East,5.8,-,0.01,Rain,Light Rain,100,2013-02-26 10:55:00
5:15 AM,46.2,46.2,100,29.34,5.0,ESE,5.8,-,0.03,Rain,Light Rain,110,2013-02-26 11:15:00
5:35 AM,46.6,46.6,100,29.34,7.0,SE,4.6,-,0.03,,Light Drizzle,130,2013-02-26 11:35:00
5:55 AM,47.5,47.5,100,29.34,10.0,ESE,6.9,-,0.03,,Overcast,120,2013-02-26 11:55:00
6:15 AM,48.2,48.2,100,29.33,10.0,ESE,6.9,-,N/A,,Overcast,120,2013-02-26 12:15:00
6:35 AM,48.2,48.2,100,29.33,10.0,ESE,4.6,-,N/A,,Overcast,120,2013-02-26 12:35:00
6:55 AM,48.4,48.4,100,29.33,10.0,ESE,4.6,-,N/A,,Overcast,120,2013-02-26 12:55:00
7:15 AM,48.2,48.2,100,29.36,4.0,SW,10.4,16.1,0.04,Rain,Rain,220,2013-02-26 13:15:00
7:35 AM,47.3,46.0,95,29.36,10.0,SW,8.1,19.6,0.05,Rain,Light Rain,230,2013-02-26 13:35:00
7:55 AM,47.1,45.1,93,29.37,10.0,SW,9.2,-,0.05,,Drizzle,220,2013-02-26 13:55:00
8:15 AM,47.1,44.1,89,29.37,10.0,SSW,6.9,-,N/A,,Overcast,210,2013-02-26 14:15:00
8:35 AM,47.5,43.7,87,29.37,10.0,SW,6.9,-,N/A,,Mostly Cloudy,220,2013-02-26 14:35:00
8:55 AM,48.4,43.9,84,29.37,10.0,SW,12.7,18.4,N/A,,Mostly Cloudy,220,2013-02-26 14:55:00
9:15 AM,48.4,43.3,83,29.38,10.0,SW,15.0,23.0,N/A,,Overcast,230,2013-02-26 15:15:00
9:35 AM,48.7,43.9,83,29.38,10.0,SSW,8.1,-,N/A,,Mostly Cloudy,210,2013-02-26 15:35:00
9:55 AM,48.7,43.5,82,29.39,10.0,SW,10.4,17.3,N/A,,Mostly Cloudy,230,2013-02-26 15:55:00
10:15 AM,48.6,43.9,84,29.39,10.0,WSW,8.1,-,N/A,,Overcast,240,2013-02-26 16:15:00
10:35 AM,48.4,41.9,78,29.39,10.0,SW,13.8,17.3,N/A,,Overcast,230,2013-02-26 16:35:00
10:55 AM,47.3,40.6,78,29.40,10.0,WSW,15.0,19.6,N/A,,Overcast,240,2013-02-26 16:55:00
11:15 AM,46.8,41.0,80,29.41,7.0,SW,16.1,19.6,N/A,Rain,Rain,230,2013-02-26 17:15:00
11:35 AM,45.7,41.4,85,29.41,7.0,SW,13.8,19.6,0.03,Rain,Light Rain,220,2013-02-26 17:35:00
11:55 AM,46.4,40.3,79,29.41,10.0,SW,11.5,19.6,0.03,,Overcast,220,2013-02-26 17:55:00
12:15 PM,46.6,40.5,79,29.41,10.0,SW,11.5,16.1,N/A,Rain,Rain,220,2013-02-26 18:15:00
12:35 PM,46.4,41.0,81,29.41,10.0,SSW,12.7,20.7,N/A,,Overcast,200,2013-02-26 18:35:00
12:55 PM,47.3,41.0,79,29.41,10.0,SSW,11.5,16.1,N/A,,Overcast,200,2013-02-26 18:55:00
1:15 PM,46.9,38.8,73,29.41,10.0,SW,16.1,26.5,N/A,,Overcast,220,2013-02-26 19:15:00
1:35 PM,46.8,39.0,74,29.42,10.0,SSW,10.4,19.6,N/A,,Overcast,200,2013-02-26 19:35:00
1:55 PM,44.8,39.2,81,29.43,10.0,SSW,12.7,26.5,N/A,,Drizzle,210,2013-02-26 19:55:00
2:15 PM,45.1,39.4,80,29.43,10.0,SSW,13.8,21.9,N/A,,Overcast,210,2013-02-26 20:15:00
2:35 PM,45.5,39.2,79,29.44,10.0,SSW,11.5,26.5,N/A,,Overcast,200,2013-02-26 20:35:00
2:55 PM,44.6,38.3,79,29.45,10.0,SSW,21.9,28.8,N/A,,Overcast,200,2013-02-26 20:55:00
3:15 PM,44.8,38.1,77,29.45,10.0,SSW,16.1,23.0,N/A,,Overcast,210,2013-02-26 21:15:00
3:35 PM,44.1,37.8,78,29.46,10.0,SW,12.7,25.3,N/A,,Overcast,220,2013-02-26 21:35:00
3:55 PM,42.8,39.0,86,29.47,4.0,SW,16.1,20.7,N/A,Rain,Rain,220,2013-02-26 21:55:00
4:15 PM,42.1,39.2,90,29.48,10.0,SW,15.0,23.0,0.01,Rain,Rain,220,2013-02-26 22:15:00
4:35 PM,41.2,39.6,94,29.49,7.0,SW,13.8,17.3,0.02,Rain,Light Rain,220,2013-02-26 22:35:00
4:55 PM,41.0,37.8,88,29.50,10.0,SW,10.4,19.6,0.02,Rain,Light Rain,230,2013-02-26 22:55:00
5:15 PM,41.0,37.8,88,29.50,10.0,SW,9.2,20.7,N/A,Rain,Light Rain,220,2013-02-26 23:15:00
5:35 PM,41.2,37.0,85,29.51,10.0,SW,11.5,-,N/A,,Overcast,220,2013-02-26 23:35:00
5:55 PM,41.2,36.9,85,29.52,10.0,SW,10.4,-,N/A,,Drizzle,230,2013-02-26 23:55:00
6:15 PM,40.6,37.2,88,29.54,7.0,SW,10.4,16.1,N/A,Rain,Light Rain,230,2013-02-27 00:15:00
6:35 PM,40.6,37.4,88,29.55,10.0,SW,10.4,-,N/A,,Overcast,230,2013-02-27 00:35:00
6:55 PM,41.0,36.9,85,29.56,10.0,SW,10.4,-,N/A,,Overcast,230,2013-02-27 00:55:00
7:15 PM,41.0,36.7,85,29.57,10.0,WSW,9.2,16.1,N/A,,Overcast,240,2013-02-27 01:15:00
7:35 PM,41.0,35.8,82,29.58,10.0,SW,9.2,-,N/A,,Overcast,230,2013-02-27 01:35:00
7:55 PM,40.6,35.2,81,29.59,10.0,WSW,13.8,18.4,N/A,,Overcast,240,2013-02-27 01:55:00
8:15 PM,40.6,34.9,80,29.60,10.0,SW,15.0,18.4,N/A,,Overcast,230,2013-02-27 02:15:00
8:35 PM,40.3,35.1,82,29.61,10.0,SW,10.4,16.1,N/A,,Overcast,230,2013-02-27 02:35:00
8:55 PM,40.3,34.9,81,29.62,10.0,WSW,11.5,16.1,N/A,,Overcast,250,2013-02-27 02:55:00
9:15 PM,40.1,34.7,81,29.63,10.0,WSW,12.7,18.4,N/A,,Overcast,240,2013-02-27 03:15:00
9:35 PM,40.1,34.9,82,29.64,10.0,WSW,10.4,18.4,N/A,,Overcast,240,2013-02-27 03:35:00
9:55 PM,40.1,34.7,81,29.65,10.0,WSW,11.5,19.6,N/A,,Overcast,240,2013-02-27 03:55:00
10:15 PM,39.7,34.9,83,29.65,10.0,WSW,13.8,18.4,N/A,,Overcast,240,2013-02-27 04:15:00
10:35 PM,39.9,34.3,80,29.66,10.0,WSW,12.7,20.7,N/A,,Overcast,240,2013-02-27 04:35:00
10:55 PM,39.7,34.0,80,29.67,10.0,WSW,11.5,-,N/A,,Overcast,240,2013-02-27 04:55:00
11:15 PM,39.6,34.2,81,29.67,10.0,WSW,12.7,18.4,N/A,,Overcast,250,2013-02-27 05:15:00
11:35 PM,39.4,34.0,81,29.67,10.0,WSW,8.1,19.6,N/A,,Overcast,250,2013-02-27 05:35:00
11:55 PM,39.4,33.8,80,29.68,10.0,West,11.5,18.4,N/A,,Overcast,260,2013-02-27 05:55:00